CFBOC EBAW-EDWR

Flight info

Callsign CFBOC
Flight time N/A
Altitude 7000
Route SONDI DCT PAM
Aircraft BE24/L-SDE3/L

Departure

Time 2026-04-15 08:42
Airport Antwerp International Airport (Deurne) (EBAW)

Arrival

Time N/A
Airport Borkum Airport (EDWR)
Time Latitude Longitude Altitude Speed Heading
2026-04-15 08:30 51.19064 4.45354 33 ft 0 kts 109°
2026-04-15 08:38 51.19050 4.45325 33 ft 6 kts 311°
2026-04-15 08:39 51.19112 4.45355 34 ft 12 kts 15°
2026-04-15 08:39 51.19187 4.45321 35 ft 9 kts 351°
2026-04-15 08:39 51.19190 4.45321 36 ft 0 kts 359°
2026-04-15 08:40 51.19207 4.45386 36 ft 17 kts 107°
2026-04-15 08:40 51.19127 4.45753 37 ft 56 kts 110°
2026-04-15 08:41 51.18973 4.46454 92 ft 71 kts 108°
2026-04-15 08:41 51.18820 4.47333 110 ft 94 kts 105°
2026-04-15 08:41 51.18633 4.48390 176 ft 105 kts 107°
2026-04-15 08:41 51.18414 4.49517 308 ft 106 kts 108°
2026-04-15 08:42 51.18180 4.50633 462 ft 106 kts 109°
2026-04-15 08:42 51.17923 4.51783 638 ft 115 kts 110°
2026-04-15 08:42 51.17626 4.53013 814 ft 122 kts 112°
2026-04-15 08:42 51.17300 4.54277 997 ft 125 kts 113°
2026-04-15 08:43 51.16946 4.55563 1177 ft 127 kts 115°
2026-04-15 08:43 51.16573 4.56841 1353 ft 129 kts 116°
2026-04-15 08:43 51.16174 4.58125 1529 ft 131 kts 117°
2026-04-15 08:43 51.15751 4.59416 1706 ft 131 kts 118°
2026-04-15 08:44 51.15314 4.60682 1882 ft 130 kts 120°
2026-04-15 08:44 51.14862 4.61923 2059 ft 129 kts 121°
2026-04-15 08:44 51.14621 4.63102 2152 ft 104 kts 76°
2026-04-15 08:44 51.15105 4.63709 2167 ft 89 kts 352°
2026-04-15 08:45 51.15427 4.63062 2165 ft 80 kts 258°
2026-04-15 08:45 51.15010 4.62678 2124 ft 79 kts 159°
2026-04-15 08:45 51.14849 4.63406 2076 ft 79 kts 57°
2026-04-15 08:45 51.15310 4.63535 2021 ft 75 kts 315°
2026-04-15 08:46 51.15271 4.62815 1970 ft 74 kts 211°
2026-04-15 08:46 51.14832 4.63056 1892 ft 79 kts 110°
2026-04-15 08:46 51.15060 4.63721 1859 ft 76 kts
2026-04-15 08:46 51.15400 4.63239 1782 ft 75 kts 264°
2026-04-15 08:47 51.15019 4.62854 1727 ft 77 kts 160°
2026-04-15 08:47 51.14856 4.63569 1680 ft 78 kts 57°
2026-04-15 08:47 51.15321 4.63721 1615 ft 73 kts 340°
2026-04-15 08:47 51.15784 4.63937 1542 ft 78 kts 54°
2026-04-15 08:48 51.15882 4.64736 1567 ft 67 kts 100°
2026-04-15 08:48 51.15827 4.65542 1463 ft 77 kts 88°
2026-04-15 08:48 51.15855 4.66411 1451 ft 79 kts 83°
2026-04-15 08:48 51.15929 4.67269 1451 ft 78 kts 83°
2026-04-15 08:49 51.16008 4.68153 1437 ft 84 kts 81°
2026-04-15 08:49 51.16109 4.69107 1509 ft 89 kts 80°
2026-04-15 08:49 51.16216 4.70066 1614 ft 87 kts 78°
2026-04-15 08:49 51.16491 4.70889 1657 ft 87 kts 23°